time_stamp(utc),avg(mph),gust(mph),direction(deg),12m_air_temp(f),sonic_u(cm/s),sonic_v(cm/s),sonic_w(cm/s),pressure,2m_air_temp(f),pyranometer(W/m^2)
"2016-12-30 00:00:21+00",12.1,14.1,,41.2,-488,223,25,1002.41,40.4,0
"2016-12-30 00:05:21+00",11.9,13.9,,41.1,-493,212,22,1002.44,40.3,0
"2016-12-30 00:10:21+00",12.4,13.4,,41,-526,190,31,1002.66,40.3,0
"2016-12-30 00:15:21+00",10.8,11.8,,40.9,-439,223,21,1002.61,40.2,0
"2016-12-30 00:20:21+00",11.2,12.2,,40.9,-454,216,25,1002.65,40.1,0
"2016-12-30 00:25:21+00",10.1,11.1,,40.7,-432,142,27,1002.78,40.1,0
"2016-12-30 00:30:21+00",10.7,11.7,,40.5,-463,121,23,1002.71,39.9,0
"2016-12-30 00:35:21+00",12.2,13.2,,40.5,-520,169,34,1002.74,39.9,0
"2016-12-30 00:40:21+00",11.1,12.1,,40.5,-479,148,37,1002.76,39.9,0
"2016-12-30 00:45:21+00",10.5,11.5,,40.5,-457,130,35,1002.79,40.1,0
"2016-12-30 00:50:21+00",11.6,13.6,,40.5,-495,153,31,1002.97,40.1,0
"2016-12-30 00:55:21+00",13.1,15.1,,40.5,-556,224,30,1003.02,40.1,0
"2016-12-30 01:00:21+00",15.4,18.4,,40.8,-610,314,45,1003,40.2,0
"2016-12-30 01:05:21+00",15.6,18.6,,40.9,-632,286,49,1003.04,40.3,0
"2016-12-30 01:10:21+00",15.9,17.9,,40.9,-666,258,40,1003.06,40.3,0
"2016-12-30 01:15:21+00",15.8,17.8,,40.9,-666,246,51,1003.15,40.5,0
"2016-12-30 01:20:21+00",14.7,16.7,,40.8,-614,244,43,1003.24,40.3,0
"2016-12-30 01:25:21+00",15.2,17.2,,40.8,-622,293,46,1003.23,40.2,0
"2016-12-30 01:30:21+00",19.1,21.1,,40.6,-756,400,49,1003.35,40,0
"2016-12-30 01:35:21+00",23.3,27.3,,40.9,-923,501,46,1003.4,40,0
"2016-12-30 01:40:21+00",29.1,34.1,,41.2,-1085,728,54,1003.4,40.2,0
"2016-12-30 01:45:21+00",26.4,30.4,,41.1,-1041,580,56,1003.27,40.3,0
"2016-12-30 01:50:21+00",21.3,26.3,,40.7,-849,449,85,1003.25,40.1,0
"2016-12-30 01:55:21+00",22.1,24.1,,40.8,-879,496,74,1003.3,40.2,0
"2016-12-30 02:00:21+00",26.6,29.6,,40.7,-1020,634,77,1003.33,40,0
"2016-12-30 02:05:21+00",22.4,24.4,,40.5,-874,475,70,1003.29,39.9,0
"2016-12-30 02:10:21+00",20.3,23.3,,40.4,-804,397,70,1003.31,39.7,0
"2016-12-30 02:15:21+00",21.4,23.4,,40.3,-877,408,60,1003.32,39.6,0
"2016-12-30 02:20:21+00",18.1,23.1,,40,-729,355,40,1003.36,39.4,0
"2016-12-30 02:25:21+00",16.3,19.3,,40,-656,306,50,1003.4,39.3,0
"2016-12-30 02:30:21+00",17.7,20.7,,40,-765,266,78,1003.36,39.4,0
"2016-12-30 02:35:21+00",20.0,22.0,,39.8,-871,255,67,1003.4,39.4,0
"2016-12-30 02:40:21+00",17.2,19.2,,39.6,-758,193,66,1003.47,39.3,0
"2016-12-30 02:45:21+00",18.5,21.5,,39.5,-808,216,61,1003.44,39.2,0
"2016-12-30 02:50:21+00",17.3,20.3,,39.3,-754,199,66,1003.39,39.1,0
"2016-12-30 02:55:21+00",16.2,18.2,,39.2,-709,147,48,1003.46,38.9,0
"2016-12-30 03:00:21+00",17.3,19.3,,39.1,-759,131,41,1003.46,38.8,0
"2016-12-30 03:05:21+00",18.8,21.8,,39.1,-820,191,43,1003.48,38.7,0
"2016-12-30 03:10:21+00",17.0,19.0,,39.1,-742,189,56,1003.54,38.7,0
"2016-12-30 03:15:21+00",17.3,19.3,,39.2,-758,195,55,1003.53,38.7,0
"2016-12-30 03:20:21+00",18.2,21.2,,39.1,-801,185,62,1003.56,38.7,0
"2016-12-30 03:25:21+00",18.2,20.2,,39.1,-795,206,39,1003.44,38.7,0
"2016-12-30 03:30:21+00",18.9,20.9,,38.9,-838,167,51,1003.4,38.6,0
"2016-12-30 03:35:21+00",19.6,21.6,,38.8,-853,177,50,1003.42,38.4,0
"2016-12-30 03:40:21+00",16.9,18.9,,38.6,-748,140,36,1003.55,38.3,0
"2016-12-30 03:45:21+00",16.6,19.6,,38.4,-733,104,42,1003.59,38,0
"2016-12-30 03:50:21+00",18.2,21.2,,38.4,-815,106,50,1003.57,38,0
"2016-12-30 03:55:21+00",18.7,21.7,,38.5,-818,152,41,1003.59,38,0
"2016-12-30 04:00:21+00",18.3,21.3,,38.4,-811,149,62,1003.58,38,0
"2016-12-30 04:05:21+00",20.7,24.7,,38.3,-924,151,60,1003.45,37.9,0
"2016-12-30 04:10:21+00",22.5,26.5,,38.4,-996,200,72,1003.47,37.9,0
"2016-12-30 04:15:21+00",23.7,26.7,,38.4,-1033,230,63,1003.44,38,0
"2016-12-30 04:20:21+00",21.8,24.8,,38.2,-961,178,71,1003.45,37.9,0
"2016-12-30 04:25:21+00",21.4,24.4,,38.3,-935,189,60,1003.49,37.9,0
"2016-12-30 04:30:21+00",21.0,24.0,,38.3,-927,165,45,1003.45,37.9,0
"2016-12-30 04:35:21+00",19.4,21.4,,38.1,-857,149,48,1003.38,37.7,0
"2016-12-30 04:40:21+00",19.7,22.7,,37.9,-868,142,32,1003.45,37.5,0
"2016-12-30 04:45:21+00",20.0,22.0,,38,-894,166,48,1003.33,37.5,0
"2016-12-30 04:50:21+00",20.9,25.9,,37.8,-930,132,49,1003.37,37.4,0
"2016-12-30 04:55:21+00",20.5,24.5,,37.7,-908,141,52,1003.3,37.3,0
"2016-12-30 05:00:21+00",19.6,22.6,,37.6,-873,103,42,1003.25,37.2,0
"2016-12-30 05:05:21+00",20.0,23.0,,37.5,-891,83,51,1003.19,37.1,0
"2016-12-30 05:10:21+00",22.1,26.1,,37.6,-978,135,37,1003.22,37.1,0
"2016-12-30 05:15:21+00",19.4,23.4,,37.5,-862,82,86,1003.09,37.1,0
"2016-12-30 05:20:21+00",21.4,25.4,,37.5,-954,105,48,1003.07,37.1,0
"2016-12-30 05:25:21+00",21.1,24.1,,37.3,-934,91,71,1003.03,36.9,0
"2016-12-30 05:30:21+00",22.2,27.2,,37.5,-981,99,52,1003.04,37,0
"2016-12-30 05:35:21+00",20.4,25.4,,37.4,-907,113,63,1002.99,37,0
"2016-12-30 05:40:21+00",17.6,20.6,,37.2,-787,72,54,1003.04,36.9,0
"2016-12-30 05:45:21+00",19.4,22.4,,37.4,-863,106,55,1003.02,36.8,0
"2016-12-30 05:50:21+00",16.3,19.3,,37.2,-744,47,59,1002.98,36.7,0
"2016-12-30 05:55:21+00",20.0,23.0,,37.3,-888,53,34,1003.03,36.7,0
"2016-12-30 06:00:21+00",20.3,23.3,,37.3,-909,93,38,1002.98,36.7,0
"2016-12-30 06:05:21+00",21.2,25.2,,37.2,-937,67,35,1002.97,36.7,0
"2016-12-30 06:10:21+00",19.9,21.9,,37,-883,15,38,1003.13,36.6,0
"2016-12-30 06:15:21+00",18.4,22.4,,36.8,-808,9,37,1003.08,36.4,0
"2016-12-30 06:20:21+00",20.0,23.0,,36.9,-885,27,44,1003.07,36.3,0
"2016-12-30 06:25:21+00",17.4,20.4,,36.9,-775,-11,45,1003.14,36.3,0
"2016-12-30 06:30:21+00",18.5,21.5,,36.8,-806,-59,42,1003.22,36.3,0
"2016-12-30 06:35:21+00",18.5,20.5,,36.8,-814,-8,45,1003.32,36.3,0
"2016-12-30 06:40:21+00",16.6,19.6,,36.7,-722,-65,35,1003.3,36.2,0
"2016-12-30 06:45:21+00",15.7,18.7,,36.6,-679,-63,31,1003.43,36.1,0
"2016-12-30 06:50:21+00",16.1,18.1,,36.5,-680,-114,48,1003.5,36,0
"2016-12-30 06:55:21+00",15.9,17.9,,36.6,-682,-96,36,1003.52,35.9,0
"2016-12-30 07:00:21+00",14.3,16.3,,36.4,-614,-102,42,1003.58,35.9,0
"2016-12-30 07:05:21+00",14.7,17.7,,36.3,-637,-79,26,1003.58,35.7,0
"2016-12-30 07:10:21+00",17.3,19.3,,36.4,-741,-105,26,1003.57,35.6,0
"2016-12-30 07:15:21+00",19.2,23.2,,36.5,-829,-117,38,1003.6,35.7,0
"2016-12-30 07:20:21+00",20.7,23.7,,36.5,-887,-107,36,1003.59,35.8,0
"2016-12-30 07:25:21+00",20.1,23.1,,36.4,-863,-103,35,1003.58,35.8,0
"2016-12-30 07:30:21+00",20.5,25.5,,36.5,-886,-98,26,1003.49,35.8,0
"2016-12-30 07:35:21+00",20.4,22.4,,36.5,-888,-96,22,1003.56,35.8,0
"2016-12-30 07:40:21+00",20.1,24.1,,36.3,-867,-108,44,1003.57,35.7,0
"2016-12-30 07:45:21+00",20.5,22.5,,36.2,-882,-106,39,1003.59,35.7,0
"2016-12-30 07:50:21+00",18.4,21.4,,36.1,-789,-96,42,1003.59,35.6,0
"2016-12-30 07:55:21+00",20.6,22.6,,36.2,-889,-117,33,1003.57,35.6,0
"2016-12-30 08:00:21+00",21.0,24.0,,36.4,-917,-85,37,1003.55,35.7,0
"2016-12-30 08:05:21+00",20.6,22.6,,36.4,-882,-133,31,1003.57,35.7,0
"2016-12-30 08:10:21+00",20.5,23.5,,36.3,-858,-196,43,1003.55,35.6,0
"2016-12-30 08:15:21+00",19.3,21.3,,36.2,-820,-128,28,1003.65,35.6,0
"2016-12-30 08:20:21+00",18.5,21.5,,36.2,-789,-154,33,1003.54,35.6,0
"2016-12-30 08:25:21+00",18.6,21.6,,36.2,-786,-185,29,1003.56,35.5,0
"2016-12-30 08:30:21+00",19.2,23.2,,36.3,-814,-151,43,1003.55,35.6,0
"2016-12-30 08:35:21+00",20.6,24.6,,36.5,-890,-82,43,1003.54,35.8,0
"2016-12-30 08:40:21+00",20.8,24.8,,36.2,-897,-102,30,1003.56,35.7,0
"2016-12-30 08:45:21+00",19.0,22.0,,36.1,-816,-84,58,1003.62,35.6,0
"2016-12-30 08:50:21+00",17.2,22.2,,35.9,-741,-103,39,1003.51,35.5,0
"2016-12-30 08:55:21+00",19.8,27.8,,36.2,-850,-90,55,1003.53,35.6,0
"2016-12-30 09:00:21+00",20.8,23.8,,36.3,-904,-98,53,1003.46,35.8,0
"2016-12-30 09:05:21+00",20.1,24.1,,36.2,-871,-73,27,1003.42,35.8,0
"2016-12-30 09:10:21+00",22.5,24.5,,36.2,-974,-129,30,1003.38,35.8,0
"2016-12-30 09:15:21+00",20.3,22.3,,36.1,-892,-45,35,1003.36,35.7,0
"2016-12-30 09:20:21+00",18.3,21.3,,35.8,-806,-6,58,1003.33,35.6,0
"2016-12-30 09:25:21+00",20.2,23.2,,35.9,-889,40,103,1003.3,35.6,0
"2016-12-30 09:30:21+00",21.2,24.2,,36,-951,61,58,1003.27,35.6,0
"2016-12-30 09:35:21+00",19.1,21.1,,35.9,-839,56,65,1003.3,35.6,0
"2016-12-30 09:40:21+00",19.7,24.7,,35.8,-865,55,65,1003.31,35.5,0
"2016-12-30 09:45:21+00",20.9,24.9,,36,-925,26,48,1003.37,35.5,0
"2016-12-30 09:50:21+00",18.8,20.8,,36.1,-829,59,46,1003.43,35.6,0
"2016-12-30 09:55:21+00",18.0,23.0,,36,-799,100,67,1003.43,35.6,0
"2016-12-30 10:00:21+00",20.3,25.3,,36,-890,106,38,1003.46,35.6,0
"2016-12-30 10:05:21+00",16.4,20.4,,35.9,-736,78,53,1003.51,35.6,0
"2016-12-30 10:10:21+00",17.0,19.0,,35.8,-756,53,56,1003.57,35.5,0
"2016-12-30 10:15:21+00",17.2,19.2,,35.7,-766,37,44,1003.67,35.4,0
"2016-12-30 10:20:21+00",16.3,18.3,,35.6,-720,9,39,1003.77,35.2,0
"2016-12-30 10:25:21+00",15.9,18.9,,35.4,-693,-16,15,1003.72,35.2,0
"2016-12-30 10:30:21+00",16.9,20.9,,35.5,-734,-32,51,1003.81,35.1,0
"2016-12-30 10:35:21+00",15.8,17.8,,35.4,-694,-3,44,1003.77,35,0
"2016-12-30 10:40:21+00",16.7,18.7,,35.5,-733,-34,34,1003.86,35.1,0
"2016-12-30 10:45:21+00",17.1,20.1,,35.5,-755,-4,41,1003.86,35.1,0
"2016-12-30 10:50:21+00",17.5,20.5,,35.5,-774,0,42,1004.02,35.2,0
"2016-12-30 10:55:21+00",16.5,19.5,,35.7,-731,82,59,1004.01,35.3,0
"2016-12-30 11:00:21+00",19.0,22.0,,35.8,-861,34,64,1004.06,35.4,0
"2016-12-30 11:05:21+00",21.2,24.2,,35.9,-934,8,34,1004.04,35.5,0
"2016-12-30 11:10:21+00",20.3,24.3,,35.8,-906,10,42,1004.16,35.5,0
"2016-12-30 11:15:21+00",18.7,22.7,,35.9,-826,-9,46,1004.25,35.6,0
"2016-12-30 11:20:21+00",20.2,23.2,,35.9,-895,11,34,1004.27,35.5,0
"2016-12-30 11:25:21+00",18.7,20.7,,35.9,-833,-17,38,1004.37,35.6,0
"2016-12-30 11:30:21+00",19.1,21.1,,35.9,-845,-11,51,1004.46,35.5,0
"2016-12-30 11:35:21+00",17.6,19.6,,35.8,-788,7,54,1004.54,35.6,0
"2016-12-30 11:40:21+00",17.4,20.4,,35.9,-777,-31,46,1004.59,35.5,0
"2016-12-30 11:45:21+00",19.4,21.4,,35.9,-853,27,36,1004.65,35.5,0
"2016-12-30 11:50:21+00",19.9,23.9,,36,-881,90,47,1004.61,35.6,0
"2016-12-30 11:55:21+00",18.9,21.9,,36.1,-834,104,59,1004.67,35.7,0
"2016-12-30 12:00:21+00",21.4,26.4,,36.2,-943,118,39,1004.67,35.8,0
"2016-12-30 12:05:21+00",18.5,22.5,,36.2,-830,55,52,1004.79,35.9,0
"2016-12-30 12:10:21+00",18.6,21.6,,36.4,-830,66,43,1004.78,36.1,0
"2016-12-30 12:15:21+00",18.2,21.2,,36.4,-811,49,48,1004.84,36.2,0
"2016-12-30 12:20:21+00",18.5,21.5,,36.4,-818,11,41,1004.86,36.1,0
"2016-12-30 12:25:21+00",18.1,20.1,,36.4,-797,-3,40,1004.87,36.1,0
"2016-12-30 12:30:21+00",18.0,20.0,,36.3,-800,9,29,1004.87,36.1,0
"2016-12-30 12:35:21+00",17.3,21.3,,36.4,-738,-66,48,1004.96,36.1,0
"2016-12-30 12:40:21+00",19.8,22.8,,36.6,-874,-24,33,1004.92,36.3,0
"2016-12-30 12:45:21+00",19.2,23.2,,36.6,-857,33,72,1004.91,36.4,0
"2016-12-30 12:50:21+00",19.2,23.2,,36.7,-862,49,68,1004.96,36.5,0
"2016-12-30 12:55:21+00",19.3,22.3,,36.7,-862,47,45,1005,36.5,0
"2016-12-30 13:00:21+00",20.7,23.7,,36.7,-909,42,49,1005.04,36.6,0
"2016-12-30 13:05:21+00",20.0,23.0,,36.7,-888,-19,46,1005.25,36.6,0
"2016-12-30 13:10:21+00",23.7,28.7,,36.9,-1048,-14,64,1005.18,36.6,0.1
"2016-12-30 13:15:21+00",19.6,22.6,,36.8,-870,53,36,1005.35,36.6,0.2
"2016-12-30 13:20:21+00",19.1,22.1,,36.8,-849,9,44,1005.45,36.7,0.5
"2016-12-30 13:25:21+00",17.6,19.6,,36.7,-791,41,43,1005.5,36.6,4.8
"2016-12-30 13:30:21+00",20.4,24.4,,36.8,-903,66,63,1005.47,36.7,7.1
"2016-12-30 13:35:21+00",22.6,28.6,,36.9,-1012,50,52,1005.48,36.9,78
"2016-12-30 13:40:21+00",19.4,21.4,,37.1,-855,41,58,1005.59,37.3,50.3
"2016-12-30 13:45:21+00",19.1,23.1,,36.9,-843,-46,22,1005.68,37.2,57.5
"2016-12-30 13:50:21+00",20.8,23.8,,36.9,-925,-28,61,1005.7,37.1,35
"2016-12-30 13:55:21+00",19.9,22.9,,37.1,-870,33,59,1005.72,37.4,121.4
"2016-12-30 14:00:21+00",22.0,26.0,,37.4,-967,-23,53,1005.79,37.7,119.9
"2016-12-30 14:05:21+00",21.9,25.9,,37.3,-978,2,43,1005.73,37.6,44
"2016-12-30 14:10:21+00",24.0,30.0,,37.6,-1057,164,56,1005.8,37.8,117.6
"2016-12-30 14:15:21+00",26.6,28.6,,37.7,-1163,266,77,1005.76,38.1,153.6
"2016-12-30 14:20:21+00",27.7,33.7,,37.8,-1216,221,76,1005.85,38.3,155.7
"2016-12-30 14:25:21+00",25.4,29.4,,37.9,-1116,219,65,1005.98,38.3,163.7
"2016-12-30 14:30:21+00",25.3,28.3,,38,-1129,151,65,1005.98,38.4,172.5
"2016-12-30 14:35:21+00",23.4,25.4,,38.1,-1030,114,77,1006.04,38.6,178.1
"2016-12-30 14:40:21+00",25.4,28.4,,38.1,-1108,225,63,1006.19,38.6,185.7
"2016-12-30 14:45:21+00",25.6,29.6,,38.3,-1130,198,49,1006.2,38.7,192.4
"2016-12-30 14:50:21+00",25.0,30.0,,38.4,-1098,302,85,1006.17,38.8,195.4
"2016-12-30 14:55:21+00",27.6,30.6,,38.4,-1209,173,54,1006.18,38.9,193.6
"2016-12-30 15:00:21+00",24.3,27.3,,38.5,-1060,262,70,1006.15,38.9,206.1
"2016-12-30 15:05:21+00",23.3,28.3,,38.6,-1015,277,106,1006.21,39,210
"2016-12-30 15:10:21+00",28.0,32.0,,38.7,-1218,286,78,1006.39,39.1,212.4
"2016-12-30 15:15:21+00",24.9,28.9,,38.8,-1108,147,70,1006.33,39.2,221.5
"2016-12-30 15:20:21+00",25.5,29.5,,38.9,-1124,237,85,1006.34,39.2,226
"2016-12-30 15:25:21+00",27.7,30.7,,38.8,-1204,373,77,1006.3,39.2,231.1
"2016-12-30 15:30:21+00",26.4,32.4,,38.9,-1111,423,69,1006.31,39.4,234.1
"2016-12-30 15:35:21+00",22.6,25.6,,39.1,-981,273,85,1006.25,39.6,238.9
"2016-12-30 15:40:21+00",26.6,30.6,,39.1,-1173,270,82,1006.2,39.6,240.9
"2016-12-30 15:45:21+00",27.4,31.4,,39,-1162,418,64,1006.14,39.6,244.7
"2016-12-30 15:50:21+00",25.2,29.2,,39.2,-1075,379,79,1006.2,39.9,246.5
"2016-12-30 15:55:21+00",29.5,35.5,,39.2,-1174,646,77,1006.21,39.8,254.3
"2016-12-30 16:00:21+00",22.9,27.9,,39.4,-992,292,99,1006.18,40,254.3
"2016-12-30 16:05:21+00",28.2,30.2,,39.2,-1195,447,87,1006.12,39.8,252.9
"2016-12-30 16:10:21+00",20.8,25.8,,39.3,-860,395,72,1006.22,40,212.8
"2016-12-30 16:15:21+00",27.4,31.4,,39.4,-1096,547,58,1006.11,40.3,267
"2016-12-30 16:20:21+00",25.8,29.8,,39.6,-1097,372,71,1006.05,40.3,275.7
"2016-12-30 16:25:21+00",26.6,30.6,,39.3,-1098,475,80,1006.12,40,141
"2016-12-30 16:30:21+00",29.5,32.5,,39.3,-1283,380,83,1006.08,39.7,244.1
"2016-12-30 16:35:21+00",24.1,29.1,,39.4,-1048,293,105,1006.15,39.9,214.6
"2016-12-30 16:40:21+00",29.7,33.7,,39.3,-1252,474,85,1006.1,39.8,279.5
"2016-12-30 16:45:21+00",25.7,30.7,,39.3,-1115,332,85,1006.07,40,197.7
"2016-12-30 16:50:21+00",24.4,29.4,,39.4,-1062,335,123,1006.11,40,267.4
"2016-12-30 16:55:21+00",22.1,26.1,,39.4,-979,226,108,1006.13,39.8,68.9
"2016-12-30 17:00:21+00",26.1,30.1,,39.6,-1155,248,90,1006.06,40,131.3
"2016-12-30 17:05:21+00",29.4,32.4,,39.7,-1286,338,80,1006.03,40,193.1
"2016-12-30 17:10:21+00",28.8,32.8,,39.9,-1097,646,56,1006.16,40.5,297.8
"2016-12-30 17:15:21+00",26.3,30.3,,40,-1133,360,87,1006.02,40.9,301.4
"2016-12-30 17:20:21+00",28.7,31.7,,39.6,-1202,476,77,1006,40.2,224.8
"2016-12-30 17:25:21+00",23.0,28.0,,39.9,-989,380,95,1006.1,40.3,283.5
"2016-12-30 17:30:21+00",29.9,33.9,,40,-1229,511,74,1006.04,40.5,243.9
"2016-12-30 17:35:21+00",25.2,29.2,,40,-1024,480,72,1006.16,40.3,115
"2016-12-30 17:40:21+00",21.2,25.2,,40.2,-838,461,59,1006.26,40.7,107.2
"2016-12-30 17:45:21+00",24.3,28.3,,40.1,-984,499,81,1006.19,40.5,265
"2016-12-30 17:50:21+00",21.8,24.8,,40.1,-951,319,74,1006.13,40.4,104.7
"2016-12-30 17:55:21+00",24.2,28.2,,40.2,-1050,316,83,1006.04,40.8,286.1
"2016-12-30 18:00:21+00",26.1,31.1,,40.7,-1046,518,70,1006.07,41.4,310.5
"2016-12-30 18:05:21+00",27.4,32.4,,40.2,-1163,421,88,1006.04,40.9,124
"2016-12-30 18:10:21+00",27.7,31.7,,40.1,-1114,528,69,1006.26,40.3,73
"2016-12-30 18:15:21+00",18.6,22.6,,40.4,-741,388,110,1006.31,40.6,113.2
"2016-12-30 18:20:21+00",31.0,36.0,,40.3,-1323,425,71,1006.17,40.8,163.2
"2016-12-30 18:25:21+00",30.0,35.0,,40.3,-1246,500,133,1006.22,40.6,258.7
"2016-12-30 18:30:21+00",31.2,35.2,,40,-1342,445,135,1006.26,40.3,77.4
"2016-12-30 18:35:21+00",30.2,36.2,,40,-1326,402,112,1006.43,40.3,251.9
"2016-12-30 18:40:21+00",26.6,30.6,,40,-1137,351,99,1006.55,40.6,212.9
"2016-12-30 18:45:21+00",27.4,31.4,,39.8,-1195,344,89,1006.71,40.6,264.9
"2016-12-30 18:50:21+00",22.0,25.0,,39.8,-960,210,110,1006.72,40.7,284.8
"2016-12-30 18:55:21+00",22.9,26.9,,39.9,-1010,183,65,1006.66,40.9,245.1
"2016-12-30 19:00:21+00",28.8,34.8,,39.7,-1290,219,110,1006.41,40.6,227.6
"2016-12-30 19:05:21+00",28.1,32.1,,39.5,-1231,299,100,1006.65,40.3,230.7
"2016-12-30 19:10:21+00",30.4,34.4,,39.4,-1340,355,89,1006.71,40.3,234.5
"2016-12-30 19:15:21+00",29.9,32.9,,39.5,-1265,467,73,1006.81,40.4,251.5
"2016-12-30 19:20:21+00",23.6,27.6,,39.5,-1036,298,85,1006.93,40.5,234.3
"2016-12-30 19:25:21+00",24.6,29.6,,39.6,-958,549,40,1007.13,40.6,193.8
"2016-12-30 19:30:21+00",22.2,26.2,,39.1,-588,792,86,1007.45,40,55.8
"2016-12-30 19:35:21+00",22.3,25.3,,38.2,-664,759,44,1007.52,39.1,49
"2016-12-30 19:40:21+00",21.3,25.3,,38.1,-613,725,44,1007.62,38.4,0.5
"2016-12-30 19:45:21+00",18.6,20.6,,38.4,-712,420,53,1007.79,38.3,0
"2016-12-30 19:50:21+00",22.6,25.6,,38,-981,302,73,1007.83,38.2,75
"2016-12-30 19:55:21+00",25.7,29.7,,38.7,-989,564,78,1007.81,39.1,153.9
"2016-12-30 20:00:21+00",26.1,29.1,,39.3,-1098,399,103,1007.84,39.8,149
"2016-12-30 20:05:21+00",20.0,24.0,,39.4,-758,487,64,1008.13,40.2,174.1
"2016-12-30 20:10:21+00",20.6,25.6,,38.4,-297,867,30,1008.29,40.1,167.3
"2016-12-30 20:15:21+00",16.6,19.6,,37.5,-163,717,24,1008.36,39.6,8.2
"2016-12-30 20:20:21+00",23.1,30.1,,37.8,-499,891,55,1008.42,38.6,0.4
"2016-12-30 20:25:21+00",23.9,30.9,,38.7,-918,531,51,1008.51,38.7,35
"2016-12-30 20:30:21+00",22.2,25.2,,39.1,-819,596,77,1008.63,39.1,72
"2016-12-30 20:35:21+00",28.6,33.6,,39.2,-1028,774,71,1008.64,39.1,21.2
"2016-12-30 20:40:21+00",25.3,31.3,,39.2,-1027,464,59,1008.68,39.1,56
"2016-12-30 20:45:21+00",25.7,29.7,,39.1,-986,606,74,1008.87,38.9,9.3
"2016-12-30 20:50:21+00",22.7,26.7,,38.9,-903,463,76,1008.91,38.6,0.4
"2016-12-30 20:55:21+00",20.8,24.8,,38.9,-836,416,64,1009.15,38.6,30.2
"2016-12-30 21:00:21+00",23.2,26.2,,39,-915,479,57,1009.16,38.7,0
"2016-12-30 21:05:21+00",21.4,23.4,,39,-803,544,56,1009.21,38.5,8.2
"2016-12-30 21:10:21+00",17.8,20.8,,39.1,-764,273,64,1009.4,38.5,0
"2016-12-30 21:15:21+00",21.3,25.3,,38.9,-955,161,86,1009.43,38.3,0
"2016-12-30 21:20:21+00",20.9,22.9,,38.7,-926,129,47,1009.59,38.1,0
"2016-12-30 21:25:21+00",24.1,28.1,,38.7,-1068,151,48,1009.54,37.9,0
"2016-12-30 21:30:21+00",19.5,21.5,,38.7,-846,243,79,1009.7,37.8,0
"2016-12-30 21:35:21+00",19.6,22.6,,38.6,-860,190,63,1009.83,37.6,0
"2016-12-30 21:40:21+00",23.3,28.3,,38.3,-1042,166,105,1009.91,37.5,0
"2016-12-30 21:45:21+00",25.2,29.2,,38.1,-1117,198,71,1010.12,37.2,0
"2016-12-30 21:50:21+00",20.4,22.4,,37.9,-902,198,53,1010.3,37,0
"2016-12-30 21:55:21+00",18.2,22.2,,37.8,-789,249,61,1010.47,36.9,0
"2016-12-30 22:00:21+00",20.4,22.4,,38,-885,250,52,1010.6,36.9,0
"2016-12-30 22:05:21+00",18.1,21.1,,37.8,-781,225,80,1010.64,36.8,0
"2016-12-30 22:10:21+00",17.5,19.5,,37.8,-752,227,68,1010.81,36.7,0
"2016-12-30 22:15:21+00",16.0,18.0,,37.7,-699,188,66,1010.94,36.7,0
"2016-12-30 22:20:21+00",18.0,20.0,,37.7,-789,147,59,1011.02,36.7,0
"2016-12-30 22:25:21+00",17.3,20.3,,37.5,-765,119,45,1011.18,36.6,0
"2016-12-30 22:30:21+00",13.8,15.8,,37.3,-604,106,27,1011.28,36.3,0
"2016-12-30 22:35:21+00",13.3,15.3,,37.3,-584,96,49,1011.36,36.2,0
"2016-12-30 22:40:21+00",11.7,13.7,,37,-528,62,34,1011.5,36,0
"2016-12-30 22:45:21+00",12.8,14.8,,36.9,-563,16,20,1011.66,35.8,0
"2016-12-30 22:50:21+00",12.5,13.5,,36.8,-549,-11,17,1011.79,35.7,0
"2016-12-30 22:55:21+00",11.6,12.6,,36.8,-518,0,25,1011.85,35.7,0
"2016-12-30 23:00:21+00",11.5,13.5,,36.7,-511,-2,22,1011.92,35.6,0
"2016-12-30 23:05:21+00",12.2,13.2,,36.7,-528,-26,15,1012.08,35.6,0
"2016-12-30 23:10:21+00",12.2,13.2,,36.9,-538,-19,23,1012.21,35.8,0
"2016-12-30 23:15:21+00",13.4,15.4,,37,-582,-28,27,1012.34,35.8,0
"2016-12-30 23:20:21+00",11.1,12.1,,36.7,-484,-22,18,1012.47,35.8,0
"2016-12-30 23:25:21+00",11.7,13.7,,36.6,-512,-32,17,1012.52,35.8,0
"2016-12-30 23:30:21+00",11.2,12.2,,36.4,-487,-33,22,1012.68,35.6,0
"2016-12-30 23:35:21+00",12.9,15.9,,36.5,-570,-20,29,1012.73,35.5,0
"2016-12-30 23:40:21+00",11.9,13.9,,36.4,-516,-33,35,1012.93,35.6,0
"2016-12-30 23:45:21+00",12.2,14.2,,36.3,-529,-46,15,1012.98,35.5,0
"2016-12-30 23:50:21+00",14.0,16.0,,36.4,-614,-30,21,1013.07,35.5,0
"2016-12-30 23:55:21+00",17.3,20.3,,36.5,-760,80,29,1013.19,35.6,0
